Mexicali, Mexico

5:11 PM PDT on August 25, 2016 (GMT -0700)
Gen Rodolfo Sanchez Taboada

Weather History for MMML - October, 2012

Change the Weather History Date:

Tuesday, October 30, 2012

  Actual Average Record
Temperature  
Mean Temperature 74 °F -  
Max Temperature 93 °F 76 °F 93 °F (2008)
Min Temperature 55 °F 49 °F 46 °F (1996)
Cooling Degree Days 9    
Growing Degree Days 24 (Base 50)    
Moisture  
Dew Point 26 °F    
Average Humidity 19    
Maximum Humidity 44    
Minimum Humidity 7    
Precipitation  
Precipitation 0.00 in - - ()
Sea Level Pressure  
Sea Level Pressure 29.96 in    
Wind  
Wind Speed 1 mph ()    
Max Wind Speed 6 mph    
Max Gust Speed -    
Visibility 10.0 miles    
Events      
Averages and records for this station are not official NWS values.
T = Trace of Precipitation, MM = Missing Value Source: Averaged Metar Reports

Daily Weather History Graph

Daily Weather History Graph

Search for Another Location

Airport or City:

Trip Planner

Search our weather history database for the weather conditions in past years. The results will help you decide how hot, cold, wet, or windy it might be!

Date:

Astronomy

Oct. 30, 2012 Rise Set
Actual Time 6:57 AM PDT 5:51 PM PDT
Civil Twilight 6:31 AM PDT 6:16 PM PDT
Nautical Twilight 6:02 AM PDT 6:45 PM PDT
Astronomical Twilight 5:34 AM PDT 7:14 PM PDT
Moon 6:28 PM PDT (10/30) 7:43 AM PDT (10/30)
Length of Visible Light 11h 44m
Length of Day
10h 54m
Full, 99% of the Moon is Illuminated
Oct 30
Full
Nov 6
Last Quarter
Nov 13
New
Nov 20
First Quarter
Nov 28
Full

Hourly Weather History & Observations

Time (PDT) Temp. Dew Point Humidity Pressure Visibility Wind Dir Wind Speed Gust Speed Precip Events Conditions
12:49 AM 66.2 °F 30.2 °F 26% 29.98 in 10.0 mi NW 5.8 mph - N/A   Clear
4:50 AM 55.4 °F 33.8 °F 44% 29.97 in 10.0 mi Calm Calm - N/A   Clear
5:40 AM 55.4 °F 28.4 °F 36% 29.98 in 10.0 mi Calm Calm - N/A   Clear
6:47 AM 55.4 °F 26.6 °F 33% 29.98 in 10.0 mi Calm Calm - N/A   Clear
7:42 AM 59.0 °F 26.6 °F 29% 30.09 in 10.0 mi Calm Calm - N/A   Clear
8:28 AM 66.2 °F 28.4 °F 24% 30.01 in 10.0 mi Calm Calm - N/A   Clear
8:46 AM 68.0 °F 30.2 °F 24% 30.02 in 10.0 mi Calm Calm - N/A   Clear
9:28 AM 73.4 °F 28.4 °F 19% 30.01 in 10.0 mi Calm Calm - N/A   Clear
9:51 AM 75.2 °F 30.2 °F 19% 30.01 in 10.0 mi Calm Calm - N/A   Clear
10:49 AM 82.4 °F 26.6 °F 13% 30.02 in 10.0 mi Calm Calm - N/A   Clear
11:45 AM 86.0 °F 23.0 °F 10% 29.99 in 10.0 mi Calm Calm - N/A   Clear
12:24 PM 89.6 °F 23.0 °F 9% 29.97 in 10.0 mi Calm Calm - N/A   Clear
12:42 PM 89.6 °F 23.0 °F 9% 29.96 in 10.0 mi Calm Calm - N/A   Clear
2:41 PM 93.2 °F 19.4 °F 7% 29.92 in 10.0 mi Calm Calm - N/A   Clear
3:46 PM 93.2 °F 19.4 °F 7% 29.91 in 10.0 mi Calm Calm - N/A   Clear
4:49 PM 91.4 °F 23.0 °F 8% 29.91 in 10.0 mi Calm Calm - N/A   Clear
5:50 PM 87.8 °F 23.0 °F 9% 29.88 in 10.0 mi Calm Calm - N/A   Clear
6:45 PM 78.8 °F 24.8 °F 14% 29.90 in 10.0 mi SSE 3.5 mph - N/A   Clear
7:48 PM 78.8 °F 26.6 °F 15% 29.91 in 10.0 mi Calm Calm - N/A   Clear
8:54 PM 75.2 °F 23.0 °F 14% 29.91 in 10.0 mi Calm Calm - N/A   Clear
9:51 PM 71.6 °F 26.6 °F 19% 29.92 in 10.0 mi Calm Calm - N/A   Clear
10:40 PM 71.6 °F 26.6 °F 19% 29.94 in 10.0 mi Calm Calm - N/A   Clear
11:53 PM 68.0 °F 26.6 °F 21% 29.92 in 10.0 mi Calm Calm - N/A   Clear